User: anonymous   Login
Location: ?????????
(38.5999°N, 22.7695°E)
Time: 19:11:24
(UTC+00:00)
Language:

SL-27 R/B - Orbit

View from above orbital plane
View from above orbital plane
View from above satellite
View from above satellite

Ground track
Ground track

The orbit data is extracted from the following two-line orbital elements,

1 40354U 14084B   24198.29761370  .00084759  00000-0  44767-3 0  9996
2 40354  74.7204 145.9793 0017655 273.8697  86.0517 15.80052686539135
Epoch (UTC): 16 July 2024 07:08:33
Eccentricity: 0.0017655
inclination: 74.7204°
perigee height: 318 km
apogee height: 342 km
right ascension of ascending node: 145.9793°
argument of perigee: 273.8697°
revolutions per day: 15.80052686
mean anomaly at epoch: 86.0517°
orbit number at epoch: 53913

The dashed part of the orbit path shows where the satellite is in the earth's shadow,  

DLR